Weather in Kegums

Latvia     56˚44′41″N   24˚43′24″E
temp.,
°C
wind,
m/s
gust,
m/s
humid.,
%
clouds,
%
prec.,
mm/h
press.,
hPa
HPBL,
m
28 november, sat
sat2823:00n378646 0.0 1017549
02:00n278641 0.0 1018462
05:00+1˚n389196 0.0 1019637
08:00+1˚n499097 0.1 1020671
11:00+2˚nne488699 0.0 1021659
14:00+2˚nne3888100 0.4 1021681
17:00+1˚ne379386 0.1 1022497
20:00+1˚ne388393 0.2 1024614
29 november, sun
sun2923:00+1˚ne3887100 0.0 1024602
02:00+1˚e2594100 0.1 1025405
05:00ene278883 0.1 1025299
08:00+1˚ne268890 0.1 1025507
11:00+1˚ne378290 0.0 1025584
14:00+1˚ne367786 0.1 1024780
17:00nne2679100 0.0 1023556
20:00−1˚n269598 0.3 1022383
30 november, mon
mon3023:00−1˚nne2493100 0.3 1022340
02:00−2˚nnw129686 0.3 102245
05:00−2˚wnw019587 0.1 102179
08:00−2˚ssw129482 0.1 1021159
11:00−1˚ssw238979 0.1 1021334
14:00ssw258788 0.1 1021444
17:00−1˚ssw3696100 0.5 1021433
20:00−1˚ssw3795100 0.9 1021411
1 december, tue
tue123:00−1˚ssw389698 0.4 1021453
02:00−1˚ssw499398 0.8 1021506
05:00ssw4109296 0.3 1021566
08:00−1˚ssw4109698 1.1 1022510
11:00ssw499199 0.4 1023497
14:00s478499 0.4 1025619
17:00s4886100 0.0 1025504
20:00s3886100 0.0 1027509
2 december, wed
wed223:00−1˚s389299 0.1 1028528
02:00−1˚s378899 0.1 1028609
05:00−1˚sse3683100 0.1 1028479
08:00−3˚sse3790100 0.1 1028296
11:00−2˚sse3683100 0.0 1029441
14:00−1˚sse3680100 0.0 1028458
17:00−2˚sse3786100 0.0 1027340
20:00−2˚sse3787100 0.0 1027343